Regional Weather Roundup
Issued by NWS Sterling, VA

Home | Current Version | Previous Version | Graphics & Text | Print | Product List | Glossary On
Versions: 1 2 3 4 5 6 7 8 9 10 11 12 13 14 15 16 17 18 19 20 21 22 23 24 25 26 27 28 29 30 31 32 33 34 35 36 37 38 39 40 41 42 43 44 45 46 47 48 49 50
983
ASUS41 KLWX 261611
RWRLWX

REGIONAL WEATHER ROUNDUP
NATIONAL WEATHER SERVICE BALTIMORE MD/WASHINGTON DC
1200 PM EDT FRI MAY 26 2017

Note: "FAIR" indicates few or no clouds below 12,000 feet
with no significant weather and/or obstructions to visibility.
 TC=TEMPERATURE CELSIUS

 * =Non NWS site. Station does not report precipitation (e.g. rain,
    snow, etc.), thunder, or fog.

DCZ001-MDZ009-015-VAZ040>042-051-053>054-261700-
WASHINGTON METRO

CITY           SKY/WX    TMP DP  RH WIND       PRES   REMARKS
WASHINGTON NAT PTSUNNY   71  58  63 W16G24    29.77R
DULLES         CLOUDY    70  57  63 W13G18    29.78R
ANDREWS AFB    PTSUNNY   69  56  62 W12G26    29.77R
FT BELVOIR     MOSUNNY   69  60  74 W3        29.77S
QUANTICO       PTSUNNY   75  60  59 NW14      29.79S
COLLEGE PARK*  CLOUDY    72  56  58 W12G21    29.76R
LEESBURG*      MOSUNNY   72  63  73 NW21G31   29.78F
MANASSAS*      CLOUDY    73  57  57 W12G26    29.79S
GAITHERSBURG*  CLOUDY    68  57  68 W14G22    29.78R

$$

MDZ006>007-011-014-261700-
BALTIMORE METRO

CITY           SKY/WX    TMP DP  RH WIND       PRES   REMARKS
BWI AIRPORT    PTSUNNY   72  58  61 W20G29    29.73R
MD SCIENCE CTR   N/A     74  57  55 MISG      29.73F
MARTIN STATE   PTSUNNY   73  61  64 W17G23    29.73S
ANNAPOLIS      PTSUNNY   74  59  59 W10G23    29.74R
FORT MEADE*    MOSUNNY   72  57  60 W13G31    29.77R

$$

MDZ012-015-019>023-261700-
MARYLAND EASTERN SHORE

CITY           SKY/WX    TMP DP  RH WIND       PRES   REMARKS
OCEAN CITY     PTSUNNY   72  56  57 NW15G22   29.73S
SALISBURY      MOSUNNY   73  58  59 W20G25    29.73S
BAY BRIDGE AP* MOSUNNY   72  59  64 W14G21    29.73S
CAMBRIDGE*     PTSUNNY   73  59  60 W12G22    29.75S
EASTON*        PTSUNNY   73  57  56 NW10G21   29.77S

$$

MDZ017>025-261700-
SOUTHERN MARYLAND

CITY           SKY/WX    TMP DP  RH WIND       PRES   REMARKS
PATUXENT RIVER PTSUNNY   75  60  59 NW21G30   29.76S
ST INIGOES     SUNNY     74  60  61 W13G24    29.76S
LEONARDTOWN*   PTSUNNY   72  57  60 W15G22    29.79R

$$

MDZ003>005-261700-
NORTH CENTRAL MARYLAND

CITY           SKY/WX    TMP DP  RH WIND       PRES   REMARKS
FREDERICK*     PTSUNNY   73  64  73 W16G23    29.79R
HAGERSTOWN APT CLOUDY    64  58  80 W13       29.77R
WESTMINSTER*   CLOUDY    70  57  64 W14G23    29.75R

$$

MDZ501>502-261700-
WESTERN MARYLAND

CITY           SKY/WX    TMP DP  RH WIND       PRES   REMARKS
OAKLAND*       CLOUDY    50  50 100 W13G18    29.86R
CUMBERLAND*    CLOUDY    68  54  60 W8G23     29.84R

$$

VAZ025>031-261700-
SHENANDOAH VALLEY

CITY           SKY/WX    TMP DP  RH WIND       PRES   REMARKS
WINCHESTER*    CLOUDY    68  54  60 W15       29.80R
FRONT ROYAL*   CLOUDY    66  55  68 W8        29.81R
LURAY*         CLOUDY    66  54  63 SW14      29.83R
NEW MARKET*    CLOUDY    69  52  53 W13G23    29.83R
STAUNTON*      PTSUNNY   70  51  52 W8G17     29.88R
WAYNESBORO*    CLOUDY    67  52  59 W13G24    29.88R

$$

WVZ021-048>050-054>055-261700-
EASTERN WEST VIRGINIA PANHANDLE

CITY           SKY/WX    TMP DP  RH WIND       PRES   REMARKS
MARTINSBURG    CLOUDY    66  56  70 SW10      29.78R
PETERSBURG*    CLOUDY    69  55  60 W13G23    29.85R

$$

VAZ036>039-050-261700-
CENTRAL FOOTHILLS

CITY           SKY/WX    TMP DP  RH WIND       PRES   REMARKS
CHARLOTTESVILL PTSUNNY   75  53  46 W9        29.83R
CULPEPER*      CLOUDY    73  58  59 W7        29.82R
ORANGE*        PTSUNNY   72  52  49 W10G22    29.82R
GORDONSVILLE*  PTSUNNY   74  53  48 W12G20    29.81R
WARRENTON*     CLOUDY    74  54  48 W7        29.79S

$$

VAZ055>057-261700-
NORTH AND CENTRAL PIEDMONT

CITY           SKY/WX    TMP DP  RH WIND       PRES   REMARKS
FREDERICKSBRG* PTSUNNY   74  58  56 W14G20    29.78S
STAFFORD*      PTSUNNY   72  59  63 W8G16     29.83S

$$

NCZ024-NYZ072-PAZ021-071-VAZ022-071-261700-
OTHER REGIONAL OBSERVATIONS

CITY           SKY/WX    TMP DP  RH WIND       PRES   REMARKS
NEW YORK CITY  CLOUDY    68  58  70 VRB3      29.61S
PHILADELPHIA   PTSUNNY   73  55  53 W15G24    29.66S
PITTSBURGH     LGT RAIN  58  56  93 NW14      29.83R
ROANOKE        MOSUNNY   73  50  44 NW25G37   29.92S
RICHMOND       MOSUNNY   77  54  44 NW21G26   29.81S
RALEIGH        MOSUNNY   75  55  49 W12G21    29.93R

$$

ANZ530>537-261700-
MARINE OBSERVATIONS

STATION/POSITION TIME  TEMP    WIND        PRES
                       AIR SEA DIR/SP/G
                 (UTC) (F)     (DEG/KT/KT) (MB)
THOMAS PT LIGHT  1600   70 64  280/ 21/ 23   N/A
BALT KEY BRIDGE  1548   70     270/ 17/ 20 1006.2R
COVE POINT       1548   71     310/ 17/ 22 1008.2S
LEWISETTA        1548   73 68  290/ 10/ 13 1008.2R
SOLOMONS ISLAND  1548   72 67  290/ 12/ 19   N/A
PINEY POINT      1548          330/ 14/ 15   N/A

$$





USA.gov is the U.S. government's official web portal to all federal, state and local government web resources and services.